Location: Vlasim
(49.7000°N, 14.9000°E)
Time: 20:38:26
(UTC+02:00)

ISS - Visible Passes

Search period start: 16 July 2018 00:00
Search period end: 26 July 2018 00:00
Orbit: 402 x 408 km, 51.6° (Epoch: 17 July)

Date Brightness Start Highest point End Pass type
(mag) Time Alt. Az. Time Alt. Az. Time Alt. Az.
16 Jul -3.0 00:59:18 39° E 00:59:18 39° E 01:01:38 10° ENE visible
16 Jul -3.4 02:31:56 12° W 02:34:54 62° N 02:38:11 10° ENE visible
16 Jul -3.6 04:08:16 10° WNW 04:11:35 77° NNE 04:14:53 10° E visible
17 Jul -1.7 00:08:35 16° E 00:08:35 16° E 00:09:28 10° E visible
17 Jul -3.6 01:41:12 28° W 01:42:46 72° NNW 01:46:04 10° ENE visible
17 Jul -3.4 03:16:10 10° WNW 03:19:28 64° N 03:22:45 10° E visible
18 Jul -3.9 00:50:12 63° WSW 00:50:40 89° SSE 00:53:58 10° ENE visible
18 Jul -3.2 02:24:03 10° W 02:27:19 59° N 02:30:35 10° E visible
18 Jul -3.9 04:00:37 10° WNW 04:03:55 73° SSW 04:07:11 10° ESE visible
18 Jul -3.9 23:58:10 57° SSW 23:58:35 64° SSE 00:01:51 10° ENE visible
19 Jul -3.3 01:31:53 10° W 01:35:08 60° N 01:38:25 10° ENE visible
19 Jul -3.8 03:08:30 10° WNW 03:11:48 84° NNE 03:15:06 10° ESE visible
19 Jul -3.5 23:03:24 10° SW 23:06:32 42° SSE 23:09:41 10° ENE visible
20 Jul -3.5 00:39:41 10° W 00:42:58 67° N 00:46:15 10° ENE visible
20 Jul -3.5 02:16:22 10° WNW 02:19:39 68° N 02:22:57 10° E visible
20 Jul -3.5 03:52:56 10° WNW 03:56:05 42° SSW 03:59:13 10° SE visible
20 Jul -2.9 22:11:42 10° SSW 22:14:32 27° SE 22:17:24 10° E visible
20 Jul -3.8 23:47:31 10° WSW 23:50:48 83° NNW 23:54:06 10° ENE visible
21 Jul -3.3 01:24:12 10° WNW 01:27:28 60° N 01:30:45 10° E visible
21 Jul -3.9 03:00:45 10° WNW 03:04:01 63° SSW 03:07:17 10° ESE visible
21 Jul -4.0 22:55:24 10° WSW 22:58:40 74° SSE 23:01:57 10° ENE visible
22 Jul -3.3 00:32:00 10° W 00:35:16 59° N 00:38:32 10° E visible
22 Jul -3.9 02:08:36 10° WNW 02:11:54 88° S 02:15:12 10° ESE visible
22 Jul -2.7 03:45:25 10° W 03:48:05 23° SW 03:50:46 10° SSE visible
22 Jul -3.7 22:03:23 10° SW 22:06:34 50° SSE 22:09:46 10° ENE visible
22 Jul -3.4 23:39:47 10° W 23:43:03 64° N 23:46:20 10° ENE visible
23 Jul -3.7 01:16:26 10° WNW 01:19:44 73° NNE 01:20:44 40° E visible
23 Jul -1.3 02:53:02 10° W 02:53:14 11° W 02:53:14 11° W visible
23 Jul -3.7 22:47:33 10° W 22:50:51 76° NNW 22:54:08 10° ENE visible
24 Jul -3.4 00:24:15 10° WNW 00:27:31 62° N 00:29:02 28° E visible
24 Jul -1.6 02:00:47 10° WNW 02:01:37 16° W 02:01:37 16° W visible
24 Jul -3.9 21:55:22 10° WSW 21:58:39 83° SSE 22:01:57 10° ENE visible
24 Jul -3.3 23:32:01 10° W 23:35:16 59° N 23:38:00 14° E visible
25 Jul -2.7 01:08:35 10° WNW 01:10:37 34° WNW 01:10:37 34° WNW visible
25 Jul -3.3 22:39:45 10° W 22:43:01 61° N 22:46:17 10° ENE visible
